Location: Blankensee
(53.5126°N, 14.3055°E)
Time: 18:55:06
(UTC+00:00)

Cosmos 2360 Rocket - Pass Details

Date: 08 August 2020
Orbit: 833 x 845 km, 71.0° (Epoch: 20 September)

Event Time Altitude Azimuth Distance (km) Brightness Sun altitude
Rises 00:11:12 0° 315° (NW) 3,416 5.8 -19.1°
Reaches altitude 10° 00:15:40 10° 282° (WNW) 2,472 4.6 -18.9°
Maximum altitude 00:17:14 11° 266° (W) 2,385 4.3 -18.9°
Enters shadow 00:18:09 11° 257° (WSW) 2,412 4.3 -18.8°
